TimeMDT,TemperatureF,Dew PointF,Humidity,Sea Level PressureIn,VisibilityMPH,Wind Direction,Wind SpeedMPH,Gust SpeedMPH,PrecipitationIn,Events,Conditions,WindDirDegrees,DateUTC
5:00 AM,21.2,10.4,63,30.30,15.0,NNW,6.9,-,N/A,,Partly Cloudy,330,2013-04-23 11:00:00
6:00 AM,21,11,53,30.30,19,WNW,4.6,,,,Mostly Cloudy,300,2013-04-23 12:00:00
6:00 AM,21.2,10.4,63,30.30,20.0,WNW,4.6,-,N/A,,Mostly Cloudy,300,2013-04-23 12:00:00
7:00 AM,19.4,12.2,74,30.30,30.0,NW,5.8,-,N/A,,Mostly Cloudy,320,2013-04-23 13:00:00
8:00 AM,24.8,17.6,74,30.30,30.0,NW,4.6,-,N/A,,Mostly Cloudy,320,2013-04-23 14:00:00
9:00 AM,32.0,17.6,55,30.32,30.0,NNW,6.9,-,N/A,,Mostly Cloudy,340,2013-04-23 15:00:00
10:00 AM,37.4,14.0,38,30.30,30.0,NNW,11.5,-,N/A,,Overcast,330,2013-04-23 16:00:00
11:00 AM,41.0,10.4,29,30.30,30.0,North,2.3,-,N/A,,Mostly Cloudy,360,2013-04-23 17:00:00
12:00 PM,43,14,18,30.30,28,West,4.6,,,,Mostly Cloudy,280,2013-04-23 18:00:00
12:00 PM,42.8,14.0,31,30.30,30.0,WNW,5.8,-,N/A,,Mostly Cloudy,300,2013-04-23 18:00:00
1:00 PM,42.8,17.6,36,30.29,30.0,NNW,9.2,-,N/A,,Mostly Cloudy,330,2013-04-23 19:00:00
1:51 PM,41.0,19.4,42,30.28,30.0,WNW,19.6,-,N/A,,Mostly Cloudy,290,2013-04-23 19:51:00
1:57 PM,41.0,19.4,42,30.28,30.0,West,17.3,24.2,N/A,,Mostly Cloudy,280,2013-04-23 19:57:00
2:00 PM,41.0,21.2,45,30.29,30.0,West,13.8,24.2,N/A,,Mostly Cloudy,270,2013-04-23 20:00:00
3:00 PM,42.8,23.0,46,30.28,30.0,North,13.8,26.5,N/A,,Mostly Cloudy,10,2013-04-23 21:00:00
4:00 PM,42.8,24.8,49,30.29,30.0,NW,12.7,18.4,N/A,,Mostly Cloudy,320,2013-04-23 22:00:00
5:00 PM,44.6,23.0,43,30.28,30.0,NW,19.6,-,N/A,,Mostly Cloudy,320,2013-04-23 23:00:00
6:00 PM,43,22,30,30.28,28,North,13.8,,,,Scattered Clouds,0,2013-04-24 00:00:00
6:00 PM,42.8,21.2,42,30.28,30.0,North,15.0,-,N/A,,Mostly Cloudy,10,2013-04-24 00:00:00
7:00 PM,42.8,21.2,42,30.27,30.0,NNW,15.0,23.0,N/A,,Mostly Cloudy,330,2013-04-24 01:00:00
9:00 PM,37.4,17.6,45,30.26,20.0,North,8.1,-,N/A,,Overcast,10,2013-04-24 03:00:00
9:26 PM,35.6,17.6,48,30.27,15.0,NNE,8.1,-,N/A,,Overcast,20,2013-04-24 03:26:00
10:00 PM,35.6,15.8,44,30.15,15.0,North,6.9,-,N/A,,Mostly Cloudy,10,2013-04-24 04:00:00